Regional Weather Roundup
Issued by NWS

Home | Current Version | Previous Version | Graphics & Text | Print | Product List | Glossary Off
Versions: 1 2 3 4 5 6 7 8 9 10 11 12 13 14 15 16 17 18 19 20 21 22 23 24 25 26 27 28 29 30 31 32 33 34 35 36 37 38 39 40 41 42 43 44 45 46 47 48 49 50

000
ASUS43 KDMX 280407
RWRIA

WEATHER ROUNDUP FOR IOWA
NATIONAL WEATHER SERVICE DES MOINES IA
1100 PM CDT WED MAY 27 2015

NOTE: "FAIR" INDICATES FEW OR NO CLOUDS BELOW 12,000 FEET WITH NO
SIGNIFICANT WEATHER AND/OR OBSTRUCTIONS TO VISIBILITY.

* - THESE STATIONS ARE NOT NWS STATIONS...THUS NOT UNDER NWS
QUALITY CONTROL.  THEY ALSO DO NOT REPORT WEATHER SUCH
AS PRECIPITATION OR FOG.

IAZ001>003-012>014-020>022-031>034-043>046-280500-
   NORTHWEST IOWA

CITY           SKY/WX    TMP DP  RH WIND       PRES   REMARKS
CARROLL *      MOCLDY    66  57  72 SW7       30.07R
CHEROKEE *     PTCLDY    63  55  77 CALM      30.05S
DENISON *      CLEAR     68  55  64 CALM      30.06R
LE MARS *      CLEAR     68  54  60 S6        30.06R
ORANGE CITY *  CLEAR     66  52  59 CALM      30.05S
SHELDON *      CLEAR     66  64  94 S6        30.04S
SIOUX CITY     MOCLDY    69  51  52 S3        30.05R
SPENCER        CLEAR     67  54  63 S8        30.05R
STORM LAKE *   CLEAR     68  54  60 S6        30.07S
$$

IAZ055>058-069>071-079>083-090>094-280500-
   SOUTHWEST IOWA

CITY           SKY/WX    TMP DP  RH WIND       PRES   REMARKS
ATLANTIC *     CLEAR     64  57  77 S5        30.09R
AUDUBON *      CLEAR     61  55  82 CALM      30.10R
COUNCIL BLFS * CLEAR     70  52  52 S7        30.08S
CRESTON *      CLEAR     68  59  73 S7        30.11R
HARLAN  *      CLEAR     64  55  72 S3        30.12R
LAMONI         PTCLDY    73  58  59 S6        30.11R
RED OAK *      CLEAR     64  55  72 CALM      30.09R
SHENANDOAH *   CLEAR     66  57  72 SE8       30.09R
$$

IAZ047>049-059>061-072>074-084-280500-
   CENTRAL IOWA

CITY           SKY/WX    TMP DP  RH WIND       PRES   REMARKS
AMES           CLEAR     63  59  87 SE6       30.07R
ANKENY *       CLEAR     64  61  88 CALM      30.08R
CHARITON *       N/A     66  61  82 SE5       30.10R
DES MOINES     PTCLDY    70  59  68 S7        30.08R
GRINNELL*      CLEAR     66  57  72 S6        30.11R
KNOXVILLE *    CLEAR     68  57  68 S6        30.09R
MARSHALLTOWN   CLEAR     66  57  72 S5        30.08R
PELLA *        PTCLDY    66  61  82 SE3       30.11R
PERRY *          N/A     66  61  83 S8        30.08R
$$

IAZ004>006-015-016-023>025-035-036-280500-
   NORTH CENTRAL IOWA

CITY           SKY/WX    TMP DP  RH WIND       PRES   REMARKS
ALGONA *       CLEAR     66 -36   1 S8        30.06S
CLARION *      CLEAR     66 N/A N/A S9        30.07S
ESTHERVILLE    PTCLDY    66  55  67 S9        30.05R
FORT DODGE *   PTCLDY    66  55  68 CALM      30.07S
MASON CITY     CLEAR     67  57  70 SW7       30.08R
FOREST CITY *  CLEAR     63  55  77 CALM      30.07R
IOWA FALLS *     N/A     64  59  82 S7        30.09R
$$

IAZ007>011-017>019-026>030-037>042-050>054-066-280500-
   NORTHEAST IOWA

CITY           SKY/WX    TMP DP  RH WIND       PRES   REMARKS
CEDAR RAPIDS   CLEAR     64  60  87 S3        30.10R
CHARLES CITY * CLEAR     68  59  73 S7        30.08R
CLINTON *      CLEAR     66  57  72 S7        30.14R
DECORAH *      PTCLDY    68  59  73 S3        30.07S
DUBUQUE        CLEAR     64  58  80 SW3       30.11R
MONTICELLO *   CLEAR     66  59  77 CALM      30.10R
OELWEIN *      CLEAR     66  59  77 S8        30.10R
WATERLOO       CLEAR     66  58  75 S6        30.08R
$$

IAZ064-065-067-068-078-280500-
   EAST CENTRAL IOWA

CITY           SKY/WX    TMP DP  RH WIND       PRES   REMARKS
DAVENPORT      CLEAR     65  58  78 S5        30.12R
IOWA CITY      CLEAR     65  59  81 CALM      30.12R
MT. PLEASANT * PTCLDY    64  59  82 S5        30.12R
MUSCATINE *    CLEAR     66  61  82 CALM      30.12R
QUAD CITIES    CLEAR     62  57  83 CALM      30.12R
$$

IAZ062-063-075>077-085>089-095>099-280500-
   SOUTHEAST IOWA

CITY           SKY/WX    TMP DP  RH WIND       PRES   REMARKS
BURLINGTON     PTCLDY    65  61  87 CALM      30.11S
FAIRFIELD *    CLEAR     66  57  72 S3        30.12R
FORT MADISON * CLEAR     64  61  88 S3        30.13R
KEOKUK *       CLEAR     64  61  88 CALM      30.11S
OSKALOOSA *      N/A     66  59  77 SE7       30.11R
CENTERVILLE *  CLEAR     64  64 100 SE6       30.13R
OTTUMWA        PTCLDY    65  59  81 S6        30.10R
WASHINGTON *   CLEAR     66  59  77 S6        30.13R
$$

ABBREVIATIONS USED IN REMARKS
   TC - TEMPERATURES IN CELSIUS
  WCI - WIND CHILL INDEX
   HX - HEAT INDEX
  VSB - VISIBILITY
$$



USA.gov is the U.S. government's official web portal to all federal, state and local government web resources and services.